Change the Weather History Date:

Friday, November 2, 2012

  Actual Average (KEKN) Record (KEKN)
Temperature  
Mean Temperature 46 °F 46 °F  
Max Temperature 51 °F 59 °F 82 °F (2004)
Min Temperature 41 °F 33 °F 15 °F (1930)
Degree Days  
Heating Degree Days 19 19  
Month to date heating degree days 38  
Since 1 July heating degree days 629  
Cooling Degree Days 0 0  
Month to date cooling degree days 0  
Year to date cooling degree days 475  
Moisture  
Dew Point 29 °F    
Average Humidity 52    
Maximum Humidity 66    
Minimum Humidity 40    
Precipitation  
Precipitation 0.00 in 0.12 in 1.15 in (1979)
Month to date precipitation 0.23  
Year to date precipitation 39.52  
Snow  
Snow 0.00 in - - ()
Month to date snowfall  
Since 1 September snowfall  
Snow Depth -    
Sea Level Pressure  
Sea Level Pressure 29.85 in    
Wind  
Wind Speed 8 mph (WNW)    
Max Wind Speed 21 mph    
Max Gust Speed 29 mph    
Visibility 10 miles    
Events      
T = Trace of Precipitation, MM = Missing Value Source: NWS Daily Summary

Daily Weather History Graph

Daily Weather History Graph

Search for Another Location

Airport or City:

Trip Planner

Search our weather history database for the weather conditions in past years. The results will help you decide how hot, cold, wet, or windy it might be!

Date:

Astronomy

Nov. 02, 2012 Rise Set
Actual Time 7:45 AM EDT 6:14 PM EDT
Civil Twilight 7:17 AM EDT 6:41 PM EDT
Nautical Twilight 6:46 AM EDT 7:13 PM EDT
Astronomical Twilight 6:15 AM EDT 7:44 PM EDT
Moon 9:00 PM EDT (11/2) 11:03 AM EDT (11/2)
Length of Visible Light 11h 24m
Length of Day
10h 28m
Waning Gibbous, 87% of the Moon is Illuminated
Nov 2
Waning Gibbous
Nov 6
Last Quarter
Nov 13
New
Nov 20
First Quarter
Nov 28
Full

Hourly Weather History & Observations

Time (EDT) Temp. Windchill Dew Point Humidity Pressure Visibility Wind Dir Wind Speed Gust Speed Precip Events Conditions
12:15 AM 48.2 °F - 25.7 °F 42% 29.77 in 10.0 mi Calm Calm - N/A   Overcast
12:35 AM 48.6 °F - 25.2 °F 40% 29.77 in 10.0 mi Calm Calm - N/A   Overcast
12:55 AM 48.2 °F - 26.2 °F 42% 29.78 in 10.0 mi West 15.0 mph 26.5 mph N/A   Scattered Clouds
1:15 AM 48.2 °F - 27.1 °F 44% 29.77 in 10.0 mi WSW 9.2 mph 26.5 mph N/A   Scattered Clouds
1:35 AM 47.5 °F - 28.2 °F 47% 29.77 in 10.0 mi West 8.1 mph - N/A   Clear
1:55 AM 46.8 °F - 29.1 °F 50% 29.78 in 10.0 mi West 13.8 mph 21.9 mph N/A   Clear
2:15 AM 45.5 °F 41.8 °F 28.9 °F 52% 29.78 in 10.0 mi WSW 6.9 mph - N/A   Scattered Clouds
2:35 AM 46.2 °F - 28.2 °F 50% 29.77 in 10.0 mi Calm Calm - N/A   Clear
2:55 AM 46.9 °F - 26.4 °F 45% 29.77 in 10.0 mi Calm Calm - N/A   Scattered Clouds
3:15 AM 45.5 °F - 27.1 °F 49% 29.77 in 10.0 mi Calm Calm - N/A   Scattered Clouds
3:35 AM 44.4 °F - 26.8 °F 50% 29.76 in 10.0 mi Calm Calm - N/A   Clear
3:55 AM 42.8 °F 37.5 °F 26.6 °F 53% 29.76 in 10.0 mi West 9.2 mph - N/A   Clear
4:15 AM 43.7 °F 37.7 °F 27.0 °F 52% 29.76 in 10.0 mi West 11.5 mph 18.4 mph N/A   Clear
4:35 AM 44.1 °F 37.1 °F 27.5 °F 52% 29.76 in 10.0 mi West 15.0 mph 25.3 mph N/A   Light Drizzle
4:55 AM 42.6 °F 34.3 °F 28.2 °F 57% 29.77 in 10.0 mi West 18.4 mph - N/A   Scattered Clouds
5:15 AM 42.4 °F 37.0 °F 28.6 °F 58% 29.77 in 10.0 mi WSW 9.2 mph - N/A   Scattered Clouds
5:35 AM 43.3 °F 39.9 °F 29.5 °F 58% 29.77 in 10.0 mi West 5.8 mph - N/A   Mostly Cloudy
5:55 AM 43.7 °F - 29.7 °F 58% 29.77 in 10.0 mi Calm Calm - N/A   Overcast
6:15 AM 43.2 °F - 30.7 °F 62% 29.78 in 10.0 mi Calm Calm - N/A   Overcast
6:35 AM 44.6 °F 38.8 °F 30.9 °F 59% 29.79 in 10.0 mi WSW 11.5 mph - N/A   Overcast
6:55 AM 42.8 °F 39.3 °F 31.6 °F 65% 29.78 in 10.0 mi West 5.8 mph - N/A   Mostly Cloudy
7:15 AM 41.9 °F 36.3 °F 31.3 °F 66% 29.78 in 10.0 mi West 9.2 mph - N/A   Scattered Clouds
7:35 AM 42.6 °F 37.8 °F 31.1 °F 64% 29.77 in 10.0 mi NW 8.1 mph - N/A   Scattered Clouds
7:55 AM 43.0 °F 37.2 °F 30.2 °F 61% 29.79 in 10.0 mi West 10.4 mph - N/A   Clear
8:15 AM 43.9 °F 36.8 °F 30.0 °F 58% 29.79 in 10.0 mi West 15.0 mph 19.6 mph N/A   Scattered Clouds
8:35 AM 44.4 °F 37.2 °F 29.3 °F 55% 29.79 in 10.0 mi West 16.1 mph 23.0 mph N/A   Scattered Clouds
8:55 AM 44.2 °F 38.4 °F 30.0 °F 57% 29.80 in 10.0 mi West 11.5 mph 17.3 mph N/A   Clear
9:15 AM 45.3 °F 41.1 °F 29.5 °F 54% 29.81 in 10.0 mi West 8.1 mph - N/A   Scattered Clouds
9:35 AM 45.1 °F 42.0 °F 29.1 °F 54% 29.82 in 10.0 mi WNW 5.8 mph - N/A   Scattered Clouds
9:55 AM 46.4 °F - 29.1 °F 51% 29.83 in 10.0 mi Calm Calm - N/A   Scattered Clouds
10:15 AM 47.3 °F - 28.8 °F 49% 29.83 in 10.0 mi West 6.9 mph 17.3 mph N/A   Scattered Clouds
10:35 AM 48.6 °F - 30.4 °F 50% 29.82 in 10.0 mi West 17.3 mph - N/A   Scattered Clouds
10:55 AM 49.1 °F - 30.4 °F 49% 29.83 in 10.0 mi West 6.9 mph 18.4 mph N/A   Mostly Cloudy
11:15 AM 47.8 °F - 29.7 °F 49% 29.85 in 10.0 mi WNW 11.5 mph 20.7 mph N/A   Mostly Cloudy
11:35 AM 48.0 °F - 29.5 °F 49% 29.84 in 10.0 mi West 11.5 mph 21.9 mph N/A   Scattered Clouds
11:55 AM 49.3 °F - 28.6 °F 45% 29.85 in 10.0 mi NW 9.2 mph 17.3 mph N/A   Scattered Clouds
12:15 PM 49.8 °F - 29.1 °F 45% 29.85 in 10.0 mi WNW 10.4 mph 19.6 mph N/A   Clear
12:35 PM 51.1 °F - 29.8 °F 44% 29.85 in 10.0 mi West 13.8 mph 24.2 mph N/A   Scattered Clouds
12:55 PM 50.7 °F - 29.1 °F 43% 29.85 in 10.0 mi NW 16.1 mph 23.0 mph N/A   Scattered Clouds
1:15 PM 49.6 °F - 28.8 °F 45% 29.85 in 10.0 mi WNW 12.7 mph 18.4 mph N/A   Mostly Cloudy
1:35 PM 49.5 °F - 28.2 °F 44% 29.85 in 10.0 mi WNW 10.4 mph 19.6 mph N/A   Overcast
2:15 PM 48.4 °F - 28.4 °F 46% 29.85 in 10.0 mi Calm Calm - N/A   Overcast
2:35 PM 49.5 °F - 29.7 °F 47% 29.85 in 10.0 mi West 8.1 mph 16.1 mph N/A   Overcast
2:55 PM 50.9 °F - 30.0 °F 45% 29.85 in 10.0 mi West 12.7 mph - N/A   Overcast
3:15 PM 48.9 °F - 29.5 °F 47% 29.86 in 10.0 mi NW 13.8 mph 21.9 mph N/A   Overcast
3:35 PM 48.2 °F - 29.3 °F 48% 29.87 in 10.0 mi WNW 10.4 mph 18.4 mph N/A   Overcast
3:55 PM 47.8 °F - 29.3 °F 49% 29.88 in 10.0 mi WNW 15.0 mph 20.7 mph N/A   Overcast
4:15 PM 48.2 °F - 28.8 °F 47% 29.88 in 10.0 mi West 10.4 mph 21.9 mph N/A   Overcast
4:35 PM 48.2 °F - 28.6 °F 47% 29.89 in 10.0 mi WNW 15.0 mph 21.9 mph N/A   Overcast
4:55 PM 48.7 °F - 29.7 °F 48% 29.89 in 10.0 mi West 12.7 mph 17.3 mph N/A   Overcast
5:15 PM 48.0 °F - 29.3 °F 48% 29.90 in 10.0 mi WNW 12.7 mph 17.3 mph N/A   Mostly Cloudy
5:35 PM 47.3 °F - 29.1 °F 49% 29.90 in 10.0 mi WNW 15.0 mph 21.9 mph N/A   Mostly Cloudy
5:55 PM 46.6 °F - 28.9 °F 50% 29.92 in 10.0 mi WNW 20.7 mph 25.3 mph N/A   Mostly Cloudy
6:15 PM 46.4 °F 40.7 °F 28.9 °F 51% 29.92 in 10.0 mi WNW 12.7 mph - N/A   Mostly Cloudy
6:35 PM 45.7 °F 39.1 °F 28.9 °F 52% 29.93 in 10.0 mi WNW 15.0 mph - N/A   Mostly Cloudy
6:55 PM 45.7 °F 38.8 °F 28.2 °F 51% 29.94 in 10.0 mi WNW 16.1 mph 21.9 mph N/A   Mostly Cloudy
7:15 PM 45.7 °F 38.0 °F 28.4 °F 51% 29.95 in 10.0 mi NW 19.6 mph 28.8 mph N/A   Mostly Cloudy
7:35 PM 45.3 °F 40.1 °F 28.9 °F 53% 29.96 in 10.0 mi WNW 10.4 mph 20.7 mph N/A   Scattered Clouds
7:55 PM 44.6 °F 39.2 °F 28.9 °F 54% 29.96 in 10.0 mi NNW 10.4 mph - N/A   Scattered Clouds
8:15 PM 45.0 °F 39.3 °F 28.8 °F 53% 29.96 in 10.0 mi NW 11.5 mph - N/A   Mostly Cloudy
8:35 PM 44.8 °F 37.1 °F 28.4 °F 53% 29.97 in 10.0 mi WNW 18.4 mph 23.0 mph N/A   Mostly Cloudy
8:55 PM 44.6 °F 38.1 °F 28.0 °F 52% 29.97 in 10.0 mi NW 13.8 mph 20.7 mph N/A   Overcast
9:15 PM 43.7 °F 37.7 °F 28.0 °F 54% 29.98 in 10.0 mi WNW 11.5 mph 17.3 mph N/A   Overcast
9:35 PM 43.2 °F 38.4 °F 27.5 °F 54% 29.98 in 10.0 mi WNW 8.1 mph 18.4 mph N/A   Overcast
9:55 PM 43.0 °F 36.0 °F 27.5 °F 54% 29.98 in 10.0 mi WNW 13.8 mph 19.6 mph N/A   Overcast
10:15 PM 42.8 °F 36.2 °F 28.0 °F 56% 29.98 in 10.0 mi WNW 12.7 mph 18.4 mph N/A   Overcast
10:35 PM 43.0 °F 36.4 °F 28.2 °F 56% 29.98 in 10.0 mi WNW 12.7 mph 20.7 mph N/A   Overcast
10:55 PM 43.2 °F 38.4 °F 28.8 °F 57% 29.99 in 10.0 mi WNW 8.1 mph - N/A   Overcast
11:15 PM 43.5 °F 38.3 °F 29.3 °F 57% 29.99 in 10.0 mi NW 9.2 mph 19.6 mph N/A   Overcast
11:35 PM 43.5 °F 37.5 °F 30.0 °F 59% 29.99 in 10.0 mi NW 11.5 mph - N/A   Overcast
11:55 PM 43.5 °F 38.3 °F 29.8 °F 59% 29.99 in 10.0 mi WNW 9.2 mph 17.3 mph N/A   Overcast